Regional Weather Roundup
Issued by NWS Columbia, SC

Home | Current Version | Previous Version | Text Only | Print | Product List | Glossary On
Versions: 1 2 3 4 5 6 7 8 9 10 11 12 13 14 15 16 17 18 19 20 21 22 23 24 25 26 27 28 29 30 31 32 33 34 35 36 37 38 39 40 41 42 43 44
000
ASUS42 KCAE 261710
RWRCAE
REGIONAL WEATHER ROUNDUP
NATIONAL WEATHER SERVICE COLUMBIA SC
1200 PM EST FRI DEC 26 2014

NOTE: "FAIR" INDICATES FEW OR NO CLOUDS BELOW 12,000 FEET WITH NO
SIGNIFICANT WEATHER AND/OR OBSTRUCTIONS TO VISIBILITY.

NOT ALL STATIONS ARE QUALITY CONTROLLED BY THE NATIONAL
WEATHER SERVICE. USE DATA WITH CAUTION...ESPECIALLY
DEWPOINT OBSERVATIONS.

SCZ001>056-GAZ040-063>065-077-261800-
...UPSTATE SOUTH CAROLINA...

CITY           SKY/WX    TMP DP  RH WIND       PRES   REMARKS
ANDERSON       SUNNY     53  36  52 CALM      30.34F
LIBERTY        FAIR      55  46  71 MISG      30.33F
SPARTANBURG    FAIR      54  36  50 CALM      30.34F
CLEMSON        SUNNY     54  34  46 CALM      30.34F
GREENVILLE     SUNNY     54  33  45 SW3       30.34F
GREENWOOD      SUNNY     53  36  52 S3        30.35F
GREER          SUNNY     53  36  52 S6        30.32F
ROCK HILL      SUNNY     54  34  46 W5        30.34F
CHESTER        FAIR      55  32  41 CALM      30.35F
LAURENS        FAIR      54  43  66 CALM      30.34F


...CENTRAL SOUTH CAROLINA...

CITY           SKY/WX    TMP DP  RH WIND       PRES   REMARKS
COLUMBIA APT   SUNNY     56  38  50 VRB3      30.34F
COLUMBIA OWENS SUNNY     56  36  47 VRB3      30.36F
DARLINGTON     SUNNY     55  36  47 SE3       30.36F
FLORENCE       SUNNY     57  35  43 CALM      30.34F
MCENTIRE ANGB  SUNNY     57  37  47 S3        30.34F
ORANGEBURG     SUNNY     57  38  48 SE6       30.33F
SUMTER SHAW    SUNNY     56  37  48 VRB3      30.32F
AIKEN          FAIR      55  37  50 CALM      30.37F
BARNWELL       FAIR      57  41  54 NE3       30.34F
MANNING        FAIR      59  41  51 CALM      30.34F
CAMDEN         FAIR      54  34  47 CALM      30.35F
LANCASTER      FAIR      54  34  47 SW3       30.35F
WINNSBORO      FAIR      55  36  47 CALM      30.33F


...EASTERN AND COASTAL SOUTH CAROLINA...

CITY           SKY/WX    TMP DP  RH WIND       PRES   REMARKS
MYRTLE BEACH   SUNNY     59  39  47 NE8       30.34F
N MYRTLE BCH   SUNNY     60  39  45 NE5       30.32F
CONWAY         FAIR      59  37  44 CALM      30.34F
MARION         FAIR      57  34  41 CALM      30.35S
HARTSVILLE     FAIR      57  30  35 E3        30.35F
FLORENCE       SUNNY     57  35  43 CALM      30.34F
DARLINGTON     SUNNY     55  36  47 SE3       30.36F
CHARLESTON APT MOSUNNY   61  44  53 CALM      30.33F
MOUNT PLEASANT LGT RAIN  61  48  63 CALM      30.33F
WALTERBORO     SUNNY     61  37  41 CALM      30.35F
BEAUFORT       SUNNY     61  45  55 NE7       30.33F


...EASTERN GEORGIA...

CITY           SKY/WX    TMP DP  RH WIND       PRES   REMARKS
AUGUSTA BUSH F SUNNY     55  38  52 CALM      30.35F
AUGUSTA DANIEL SUNNY     55  37  50 S5        30.35F
THOMSON        SUNNY     56  42  60 CALM      30.39F
WASHINGTON     FAIR      55  45  67 CALM      30.35F
CLAXTON        FAIR      59  45  58 CALM      30.34F
SYLVANIA       SUNNY     58  44  60 CALM      30.34F
STATESBORO     SUNNY     57  43  59 NE5       30.34F
SAVANNAH       MOSUNNY   61  42  49 N5        30.33F


...SOUTHERN NORTH CAROLINA...

CITY           SKY/WX    TMP DP  RH WIND       PRES   REMARKS
CHARLOTTE      MOSUNNY   54  33  45 VRB5      30.33F
MONROE         SUNNY     54  34  46 W6        30.32F
WADESBORO      SUNNY     53  34  49 CALM      30.34F
ROCKINGHAM     SUNNY     53  35  50 CALM      30.33F
RUTHERFORDTON  SUNNY     51  34  52 S6        30.33F
ASHEVILLE      SUNNY     45  31  58 SW3       30.32F

$$


USA.gov is the U.S. government's official web portal to all federal, state and local government web resources and services.